Location: Unspecified
(0.0000°N, 0.0000°E)
Time: 01:54:47
(UTC+00:00)

deb Midas V - Pass Details

Date: 17 April 2026
Orbit: 2771 x 3389 km, 86.6° (Epoch: 17 May)

Event Time Altitude Azimuth Distance (km) Brightness Sun altitude
Rises 18:37:30 0° 357° (N) 7,370 ? -9.3°
Reaches altitude 10° 18:41:45 10° 356° (N) 6,316 ? -10.4°
Maximum altitude 18:59:12 76° 273° (W) 3,266 ? -14.7°
Drops below altitude 10° 19:15:18 10° 188° (S) 5,853 ? -18.6°
Sets 19:19:05 0° 186° (S) 6,815 ? -19.5°
